Wind_Speed
7 5 10 13 11 11 7 7 7 6 8 11 11 12 16 16 15 14 13 12 11 10 12 15 14 18 19 21 22 27 31 34 36 37 38 40 42 43 44 45 44 42 41 35
11 14 10 12 12 5 5 6 7 7 6 10 9 14 14 20 17 16 15 14 12 12 12 16 18 20 22 21 24 27 31 34 35 36 38 40 41 43 44 43 40 36 36 37
15 8 15 11 8 5 5 7 8 5 7 11 11 19 20 20 17 17 17 14 13 13 9 13 21 21 21 22 23 27 32 35 34 35 37 38 40 42 43 42 37 33 35 35
13 12 13 10 8 7 7 10 3 7 5 5 7 8 14 19 20 19 19 17 16 13 12 17 18 20 20 21 24 28 33 34 35 36 37 40 43 44 43 41 34 31 32 34
15 17 13 11 9 6 5 8 7 7 9 9 10 6 9 15 21 21 20 18 17 12 15 14 18 18 20 19 25 28 31 34 34 35 38 41 42 43 42 39 32 31 32 33
9 10 12 10 15 9 9 6 4 5 7 6 15 12 8 12 17 18 19 18 15 14 15 18 18 18 16 20 24 27 30 32 33 34 37 41 42 42 42 38 32 31 32 34
14 13 16 16 12 9 8 9 2 2 3 5 4 12 11 2 6 11 16 17 16 16 16 16 17 15 17 19 23 26 29 30 31 33 36 39 40 42 42 37 32 32 33 36
18 10 14 14 11 5 13 13 5 3 2 2 8 6 2 7 10 16 12 15 18 17 15 14 14 14 16 19 21 24 26 27 29 32 36 38 39 41 41 34 31 31 33 35
19 9 20 15 11 9 10 16 13 9 6 3 5 6 4 14 13 8 15 16 17 14 14 13 14 10 16 19 21 23 25 26 28 31 35 37 38 40 39 33 30 30 31 33
17 10 15 19 18 14 13 10 5 6 4 4 7 14 6 11 9 10 10 13 14 13 14 13 11 11 15 18 19 22 23 25 27 31 34 36 37 38 38 32 29 30 30 31
16 12 12 11 15 15 16 14 9 10 5 2 3 4 15 10 8 7 9 11 11 12 12 11 9 12 15 17 19 21 22 23 27 30 33 35 35 37 37 32 29 29 29 30
20 11 10 12 12 11 13 18 20 9 6 7 2 3 10 10 10 7 7 9 11 11 10 10 9 13 15 16 19 20 21 23 26 29 32 33 34 36 37 31 28 28 28 29
22 11 9 3 10 13 20 25 24 28 12 11 6 4 13 13 10 5 6 8 9 9 9 9 9 13 14 15 17 19 20 22 26 28 30 31 32 34 36 32 28 27 27 27
19 11 16 14 7 10 17 31 30 23 17 14 22 6 11 16 12 3 4 6 8 8 9 7 9 11 13 14 16 17 19 21 24 26 29 29 30 33 35 33 28 26 26 26
21 17 16 11 8 7 9 19 32 36 31 20 17 24 10 14 14 8 10 9 9 8 8 6 9 11 12 13 15 16 18 20 22 24 27 28 29 31 33 33 29 26 25 26
27 8 12 16 12 11 12 12 21 31 27 30 23 21 10 20 20 15 12 12 11 9 9 6 9 11 12 13 14 15 17 18 20 22 25 26 27 29 32 33 30 27 25 24
23 12 9 14 14 12 16 26 26 24 29 25 24 10 15 14 20 20 17 12 11 11 11 7 10 11 11 12 13 14 15 16 18 21 23 25 25 26 29 32 31 27 26 24
22 13 8 5 8 3 10 12 9 22 23 24 21 11 6 10 8 17 13 12 11 13 11 8 11 11 10 11 12 13 14 14 16 19 21 23 24 24 26 30 32 29 27 25
20 17 10 5 13 11 15 13 8 9 17 19 21 17 12 12 9 12 17 15 10 12 9 9 10 8 9 10 10 11 11 13 15 17 19 21 22 23 24 27 30 32 29 27
12 19 12 11 4 3 3 8 4 9 6 10 18 19 20 17 17 14 15 12 11 9 7 8 8 6 8 8 9 9 10 12 13 15 17 19 21 22 22 25 27 30 32 30
22 20 18 14 8 8 9 8 3 5 6 13 16 20 23 20 12 11 10 11 9 7 6 7 6 5 5 5 6 8 9 10 12 13 15 17 19 21 22 22 24 27 30 32
19 17 14 16 7 9 12 7 8 9 4 7 11 18 21 19 19 18 15 10 7 4 5 5 3 2 3 5 6 7 8 10 11 12 14 16 18 20 21 22 22 24 27 29
12 16 12 13 6 8 7 5 11 8 5 7 16 19 22 23 17 17 13 9 6 3 6 4 2 4 5 5 7 7 8 8 10 11 12 14 16 18 20 21 21 22 23 25
18 18 12 12 12 11 7 6 6 5 6 8 11 17 18 18 14 14 12 9 6 5 5 3 4 4 5 6 7 7 7 8 8 10 11 12 15 17 18 20 20 21 22 23
18 22 21 12 10 8 8 7 8 5 7 9 11 13 16 15 14 12 11 9 5 5 5 3 3 4 5 5 6 7 7 7 8 9 10 12 13 15 17 18 19 20 20 20
13 15 19 10 9 7 8 7 7 4 7 9 11 14 15 15 15 14 12 9 7 5 4 3 3 4 4 4 5 6 6 7 8 8 10 11 12 14 15 17 17 18 19 19
Wind_Direction
250 168 196 204 214 274 287 259 224 231 225 215 230 243 243 271 215 209 207 219 234 255 261 299 315 332 336 334 339 342 350 353 351 345 342 343 343 342 344 344 341 336 340 346
219 232 206 194 219 237 231 231 202 162 216 224 251 253 235 245 245 212 214 222 228 250 272 303 316 331 332 334 345 344 350 352 348 344 344 344 343 346 347 346 344 339 351 348
222 224 201 187 188 205 229 217 208 224 239 239 259 270 228 230 233 218 221 222 236 243 256 268 298 321 327 336 342 345 351 349 346 345 343 343 346 349 350 351 349 351 351 349
223 204 206 181 191 198 227 224 186 209 208 293 205 309 206 213 223 223 220 221 217 235 229 252 292 314 321 335 338 352 351 345 347 344 344 348 352 352 354 354 355 354 352 352
207 208 197 195 189 194 209 218 209 217 240 272 253 247 268 206 215 223 224 226 232 218 244 273 288 305 318 329 346 350 348 345 345 343 347 352 353 354 356 357 358 357 357 357
217 193 186 210 207 185 223 162 193 227 242 254 242 206 269 219 219 225 233 224 229 219 232 261 285 312 315 335 347 348 348 342 342 346 350 355 355 356 359 0 360 0 1 2
171 170 196 196 192 181 163 169 210 223 201 237 174 197 228 247 181 213 223 220 217 228 243 273 299 318 319 333 344 347 344 340 343 350 353 357 357 358 1 1 1 3 4 6
175 179 189 187 190 168 187 196 178 229 258 93 165 219 137 192 231 173 189 209 212 233 251 268 280 300 315 335 343 347 339 341 346 352 356 358 359 1 3 3 4 6 8 9
185 142 183 175 199 173 199 221 234 248 289 307 230 177 207 219 235 203 181 192 215 239 259 270 284 320 324 335 345 343 339 342 351 356 359 0 1 2 5 7 6 9 11 12
194 152 190 195 195 200 173 203 202 201 188 232 252 204 199 212 211 206 207 200 219 241 260 271 301 330 330 336 345 340 340 345 357 0 1 2 2 3 7 9 10 11 14 15
207 194 169 206 213 207 200 190 195 202 208 251 288 139 147 209 209 208 216 215 235 245 255 277 303 328 331 337 341 339 343 349 0 2 3 4 4 5 10 11 13 14 16 19
202 194 161 190 176 196 229 229 226 212 218 209 224 252 202 185 186 206 219 228 237 248 261 282 315 327 327 339 337 343 343 355 3 3 5 5 5 7 11 14 16 17 16 22
192 205 145 202 263 242 231 224 240 228 229 215 177 229 195 186 181 197 223 230 239 249 266 286 319 324 330 334 337 341 347 0 5 4 7 7 6 9 12 16 18 20 19 23
204 225 219 230 250 263 224 216 225 227 219 223 221 214 202 194 192 224 257 241 250 254 273 297 317 324 326 330 338 342 354 3 5 5 9 8 8 12 14 18 20 22 21 23
209 216 219 216 232 225 265 218 212 227 232 217 251 237 227 210 207 278 265 252 258 260 272 295 311 323 322 333 338 345 358 5 6 7 10 10 12 14 15 18 21 23 23 23
205 228 223 227 227 228 240 223 217 234 243 240 241 247 230 229 244 244 238 253 252 250 267 286 307 319 324 337 345 354 2 4 6 9 12 13 15 16 17 19 22 23 26 24
194 205 193 221 234 245 259 239 231 235 239 248 238 264 233 224 234 240 248 245 225 234 258 281 308 318 324 344 352 357 3 4 8 10 14 16 19 19 19 21 23 24 27 27
189 194 179 196 162 234 253 264 264 237 229 233 245 239 209 197 209 208 219 231 212 230 251 290 307 316 337 355 356 360 5 5 9 12 15 18 22 23 24 23 25 28 28 29
182 179 187 177 212 278 289 277 254 219 227 223 230 218 210 182 208 188 194 214 219 229 267 296 308 321 358 3 359 2 5 7 9 14 15 19 23 26 28 28 27 30 31 30
193 195 206 204 258 265 212 253 275 176 195 212 221 211 201 192 199 204 186 208 221 248 279 305 311 347 12 7 360 1 6 9 9 15 17 19 23 27 30 32 31 31 31 34
179 190 209 207 232 253 267 263 254 165 191 210 186 214 196 197 182 228 230 225 235 253 301 307 321 11 16 3 349 6 11 7 6 14 16 18 23 27 31 33 34 34 32 32
176 178 201 205 229 257 243 258 196 221 208 194 192 190 193 199 196 199 221 226 233 272 301 296 318 14 356 356 358 10 12 7 5 11 12 17 23 26 31 33 33 34 34 33
190 198 202 211 238 228 227 231 220 211 191 172 161 186 195 199 198 194 205 217 234 267 270 271 356 10 357 359 0 8 12 4 5 7 10 14 20 25 30 32 32 33 33 33
201 194 204 206 221 185 218 228 174 183 183 164 167 180 195 199 196 197 205 220 235 257 271 306 15 6 357 360 358 360 5 3 1 6 7 10 19 24 28 31 32 32 33 32
213 208 200 184 175 197 230 232 217 199 204 191 174 182 196 193 204 207 215 225 243 277 294 336 353 4 0 356 350 352 355 355 2 4 3 8 15 22 25 29 32 34 35 35
200 206 190 209 204 177 217 212 202 192 206 208 196 195 199 202 213 216 217 224 231 248 275 312 339 4 355 341 339 342 346 351 359 360 2 5 11 17 24 24 28 32 34 35
Height
3141 3142 3143 3143 3144 3144 3143 3143 3143 3145 3145 3147 3148 3148 3145 3142 3143 3145 3148 3150 3149 3148 3146 3142 3141 3139 3137 3133 3129 3123 3117 3112 3107 3102 3095 3089 3082 3074 3065 3055 3044 3033 3024 3017
3142 3138 3139 3141 3141 3142 3143 3143 3144 3143 3144 3146 3147 3146 3146 3140 3141 3144 3146 3147 3148 3146 3144 3141 3139 3137 3134 3131 3126 3120 3115 3110 3106 3100 3093 3087 3080 3070 3061 3052 3042 3030 3022 3015
3137 3137 3135 3137 3138 3140 3141 3142 3141 3144 3141 3143 3144 3140 3140 3141 3140 3142 3145 3146 3147 3146 3145 3143 3137 3135 3132 3128 3124 3120 3114 3109 3105 3099 3092 3086 3078 3068 3057 3047 3037 3027 3021 3014
3135 3132 3134 3135 3137 3137 3139 3139 3140 3142 3142 3141 3143 3139 3136 3139 3139 3140 3142 3143 3145 3144 3143 3141 3137 3134 3130 3126 3123 3118 3112 3108 3102 3097 3091 3082 3071 3062 3053 3044 3035 3028 3021 3014
3128 3128 3131 3134 3135 3134 3137 3137 3139 3141 3141 3140 3141 3143 3134 3135 3137 3137 3139 3140 3141 3142 3141 3139 3135 3132 3129 3125 3120 3116 3112 3106 3102 3096 3088 3078 3070 3060 3052 3043 3034 3028 3021 3013
3124 3125 3129 3132 3130 3132 3132 3137 3139 3140 3140 3138 3134 3139 3133 3133 3134 3136 3137 3138 3139 3140 3139 3137 3133 3131 3128 3123 3120 3116 3111 3105 3101 3094 3085 3076 3067 3059 3050 3041 3034 3027 3021 3012
3119 3122 3124 3127 3128 3129 3131 3136 3140 3140 3139 3135 3131 3135 3130 3132 3132 3135 3136 3137 3138 3137 3136 3134 3130 3128 3125 3122 3119 3115 3110 3106 3101 3093 3084 3075 3067 3058 3049 3040 3034 3027 3020 3011
3114 3121 3120 3124 3127 3126 3129 3135 3137 3137 3131 3127 3130 3130 3130 3129 3129 3132 3136 3136 3136 3134 3133 3132 3130 3127 3123 3121 3119 3115 3110 3105 3099 3092 3083 3075 3066 3058 3049 3041 3035 3028 3021 3012
3110 3115 3116 3121 3125 3126 3128 3132 3135 3134 3133 3132 3127 3128 3127 3127 3128 3131 3133 3134 3133 3132 3130 3130 3127 3125 3122 3120 3117 3114 3110 3105 3098 3091 3083 3075 3066 3058 3050 3042 3036 3029 3023 3015
3106 3110 3115 3116 3119 3122 3123 3131 3132 3132 3132 3131 3122 3121 3123 3124 3126 3127 3129 3130 3130 3130 3128 3127 3124 3123 3122 3119 3117 3113 3109 3104 3097 3090 3083 3075 3067 3059 3051 3043 3037 3031 3025 3018
3104 3107 3114 3114 3116 3118 3123 3125 3127 3129 3128 3126 3123 3120 3120 3122 3124 3126 3127 3128 3128 3128 3126 3124 3123 3122 3120 3118 3115 3112 3109 3104 3096 3089 3083 3076 3069 3061 3052 3045 3038 3033 3028 3021
3102 3105 3108 3112 3113 3115 3120 3122 3124 3124 3125 3124 3125 3120 3118 3120 3122 3124 3125 3126 3126 3125 3124 3122 3122 3120 3119 3116 3114 3111 3108 3102 3095 3090 3083 3076 3070 3062 3054 3047 3040 3035 3030 3024
3096 3101 3106 3110 3112 3110 3112 3117 3117 3120 3121 3119 3121 3117 3115 3118 3120 3121 3123 3123 3123 3123 3122 3122 3121 3120 3117 3116 3113 3111 3107 3101 3095 3091 3084 3078 3072 3064 3056 3049 3042 3037 3033 3027
3094 3097 3099 3101 3102 3104 3105 3108 3111 3115 3116 3114 3112 3113 3113 3115 3118 3119 3120 3121 3121 3121 3120 3120 3119 3118 3116 3115 3113 3111 3106 3100 3095 3091 3085 3080 3073 3066 3058 3051 3045 3040 3035 3031
3091 3095 3098 3100 3102 3103 3102 3102 3106 3105 3107 3109 3108 3110 3112 3114 3116 3117 3117 3118 3119 3119 3118 3118 3118 3117 3116 3114 3113 3110 3105 3100 3096 3092 3087 3082 3075 3068 3061 3054 3047 3042 3038 3033
3088 3094 3095 3098 3100 3102 3102 3101 3102 3101 3102 3103 3105 3106 3109 3111 3113 3113 3115 3115 3116 3116 3116 3117 3116 3115 3115 3113 3112 3108 3104 3100 3097 3093 3089 3083 3077 3071 3064 3057 3050 3045 3040 3036
3086 3092 3093 3095 3098 3100 3097 3093 3095 3097 3097 3098 3099 3102 3104 3105 3108 3109 3111 3113 3114 3114 3114 3115 3114 3114 3114 3113 3111 3107 3103 3101 3097 3094 3090 3085 3079 3074 3067 3060 3054 3048 3043 3039
3085 3090 3092 3094 3096 3097 3089 3087 3089 3089 3093 3095 3097 3100 3101 3103 3104 3106 3109 3110 3111 3113 3113 3113 3113 3114 3114 3112 3110 3106 3103 3101 3098 3095 3091 3087 3082 3077 3071 3065 3058 3052 3047 3042
3084 3087 3090 3092 3093 3089 3087 3085 3086 3085 3088 3092 3094 3097 3101 3102 3103 3105 3107 3108 3110 3111 3111 3112 3114 3114 3112 3111 3108 3105 3102 3100 3098 3095 3092 3088 3084 3079 3074 3069 3063 3056 3051 3046
3082 3086 3089 3090 3091 3087 3084 3083 3082 3084 3086 3089 3091 3094 3097 3099 3100 3102 3104 3106 3108 3109 3111 3113 3113 3113 3111 3110 3107 3103 3102 3101 3098 3095 3093 3089 3085 3081 3077 3072 3067 3061 3056 3050
3080 3085 3086 3088 3088 3085 3083 3082 3083 3085 3088 3084 3086 3090 3094 3096 3099 3102 3103 3105 3107 3109 3111 3112 3112 3111 3109 3107 3104 3103 3102 3101 3099 3096 3094 3090 3087 3083 3079 3075 3071 3066 3061 3055
3074 3079 3082 3085 3086 3084 3080 3081 3083 3083 3082 3083 3085 3088 3092 3095 3095 3099 3102 3104 3106 3108 3110 3111 3110 3108 3107 3106 3105 3103 3102 3101 3099 3097 3094 3092 3088 3085 3081 3078 3074 3070 3065 3061
3073 3073 3075 3079 3078 3077 3078 3078 3078 3080 3081 3083 3085 3087 3090 3091 3094 3098 3101 3103 3105 3107 3109 3108 3107 3107 3107 3106 3104 3103 3102 3101 3100 3097 3095 3093 3089 3086 3083 3080 3076 3073 3069 3065
3068 3070 3072 3075 3076 3076 3077 3078 3079 3080 3081 3083 3084 3086 3088 3091 3094 3097 3099 3101 3104 3106 3107 3107 3106 3106 3106 3105 3104 3103 3102 3101 3100 3098 3096 3093 3091 3088 3085 3082 3079 3075 3072 3069
3063 3066 3069 3072 3073 3075 3076 3077 3078 3079 3081 3083 3084 3086 3088 3091 3093 3096 3098 3101 3104 3105 3106 3106 3105 3104 3105 3104 3103 3102 3101 3101 3100 3098 3096 3094 3092 3089 3087 3084 3082 3078 3075 3072
3061 3062 3067 3070 3072 3074 3074 3076 3077 3078 3080 3081 3083 3085 3087 3090 3092 3095 3097 3100 3102 3103 3104 3104 3104 3103 3103 3103 3102 3102 3101 3100 3100 3098 3096 3095 3093 3091 3088 3086 3083 3080 3077 3074